SCP
0 0 0 0 0 0 0 0 0 0 0 0 -0 -0 0 0 0 0 0 0 0 0 0 0 0 0 0 0 0 0 0 0 0 0 0 0 0 0 0 0 0 0 0 0 0 0 -0
0 0 0 0 0 0 0 0 0 0 0 0 -0 -0 -0 0 0 0 0 0 0 0 0 0 0 0 0 0 0 0 0 0 0 0 0 0 0 0 0 0 0 0 0 -0 0 0 -0
0 0 0 0 0 0 0 0 0 0 0 0 -0 0 0 -0 0 0 0 0 0 0 0 0 0 0 0 0 0 0 0 0 0 0 0 -0 0 0 0 0 0 0 0 0 0 0 -0
0 0 0 0 0 0 0 0 0 0 0 0 0 -0 -0 -0 -0 -0 0 0 0 0 0 0 0 0 0 0 0 0 0 0 0 0 0 0 0 0 0 -0 0 0 0 0 0 0 -0
0 0 0 0 0 0 0 -0 0 0 0 0 0 0 -0 -0 -0 -0 0 0 0 0 -0 0 0 0 0 0 0 -0 0 0 0 0 0 0 0 0 0 0 0 0 0 0 0 0 0
0 0 0 0 0 0 0 0 0 0 0 0 0 -0 -0 -0 -0 -0 0 -0 -0 -0 0 -0 0 0 0 0 0 0 0 0 0 0 0 0 0 0 0 0 0 0 0 0 0 -0 -0
0 0 0 0 0 0 0 0 -0 -0 -0 -0 0 0 -0 -0 -0 -0 0 0 0 0 0 0 0 0 0 0 0 0 0 0 0 0 0 0 0 0 0 0 0 0 0 0 0 0 0
0 0 0 0 0 0 0 0 -0 -0 -0 -0 -0 0 -0 -0 -0 -0 0 0 0 0 0 0 0 0 0 0 0 0 0 0 0 0 0 0 0 0 0 0 0 0 0 0 0 0 0
0 0 0 0 0 0 0 0 -0 -0 0 0 0 0 0 0 -0 -0 0 0 0 0 0 0 0 0 0 0 0 0 0 0 0 0 0 0 0 0 0 0 0 0 0 0 0 0 0
0 0 0 0 0 0 0 0 0 0 0 0 0 0 0 0 -0 -0 0 0 0 0 0 0 0 0 0 0 0 -0 0 0 0 0 0 0 0 0 0 0 0 0 0 0 0 0 0
0 0 0 0 0 0 0 0 0 0 0 0 0 0 0 -0 0 0 0 0 0 0 0 -0 -0 0 0 0 0 0 0 0 0 0 0 0 0 0 0 0 0 0 0 0 0 0 0
0 0 0 0 0 0 0 0 0 0 0 0 0 0 -0 -0 -0 0 0 0 -0 0 0 -0 -0 0 0 0 0 0 0 0 0 0 0 0 0 0 0 0 0 0 0 0 0 0 0
0 0 0 0 0 0 0 0 0 0 0 0 0 0 -0 0 -0 -0 -0 0 0 0 0 0 0 -0 0 0 0 0 0 0 0 0 0 0 0 0 0 0 0 0 0 0 0 0 0
0 0 0 0 0 0 0 0 0 0 -0 -0 -0 -0 -0 0 0 -0 0 -0 0 0 0 0 0 0 -0 0 0 0 0 0 0 0 0 0 0 0 0 0 0 0 0 0 0 0 0
0 0 0 0 0 0 0 0 0 0 -0 -0 -0 -0 -0 -0 0 -0 0 0 -0 0 0 0 0 0 0 0 0 0 0 0 0 0 0 0 0 0 0 0 0 0 0 0 0 0 0
0 0 0 0 0 0 0 -0 0 -0 -0 -0 0 0 -0 0 -0 -0 0 0 0 0 0 0 0 -0 0 0 0 0 0 0 0 0 0 0 0 0 0 0 0 0 0 0 0 0 0
0 0 0 0 0 0 0 0 0 -0 -0 -0 -0 -0 -0 0 -0 0 0 -0 -0 -0 0 0 -0 0 0 0 0 0 0 0 0 0 0 0 0 0 0 0 0 0 0 0 0 0 0
0 0 0 0 0 0 0 0 0 -0 -0 0 0 -0 -0 -0 -0 -0 0 0 0 -0 -0 0 0 0 0 0 0 0 0 0 0 0 0 0 0 0 0 0 0 0 0 0 0 0 0
0 0 0 0 0 0 0 0 0 0 0 0 0 -0 0 0 -0 0 -0 -0 -0 -0 -0 0 0 0 0 0 0 0 0 -0 0 0 0 0 0 0 0 0 0 0 0 0 0 0 0
0 0 0 0 0 0 0 0 0 -0 -0 0 0 -0 -0 0 0 -0 0 -0 0 0 0 0 0 -0 0 0 0 0 0 -0 -0 0 0 0 0 0 0 0 0 0 0 0 0 0 0
0 0 0 0 0 -0 -0 0 -0 -0 -0 0 0 0 0 0 0 -0 -0 -0 -0 0 -0 0 0 0 0 0 0 0 0 0 0 0 0 0 0 0 0 0 0 0 0 0 0 0 0
0 0 0 0 0 -0 -0 0 -0 -0 -0 0 0 0 0 0 0 0 0 0 -0 0 -0 -0 0 0 0 0 0 0 0 0 0 0 0 0 0 0 0 0 0 0 0 0 1 1 0
0 0 0 0 -0 -0 -0 0 -0 -0 -0 0 0 0 0 0 0 0 0 0 0 0 0 0 -0 -0 0 0 0 0 0 0 0 0 0 0 0 0 0 0 0 0 0 0 0 0 0
0 0 0 -0 -0 -0 0 0 -0 -0 0 0 0 0 0 0 0 0 0 0 0 0 0 0 0 0 0 0 0 0 0 0 0 0 0 0 0 0 0 0 0 0 0 0 -0 0 0
0 0 -0 -0 -0 -0 0 -0 -0 -0 -0 0 0 0 0 0 0 0 0 0 0 0 0 0 0 0 0 0 0 0 0 0 0 0 0 0 0 0 0 0 0 0 0 0 0 1 0
0 0 -0 -0 -0 -0 0 -0 -0 -0 -0 0 0 0 0 0 0 0 0 0 0 0 0 0 0 0 0 0 0 0 0 0 0 0 0 0 0 0 0 0 0 0 0 0 0 0 0
0 0 -0 -0 -0 -0 0 -0 -0 -0 0 0 0 0 0 0 -0 -0 0 0 0 0 0 0 0 0 0 0 0 0 0 0 0 0 0 0 0 0 0 0 0 0 0 0 0 0 0
0 0 -0 -0 -0 -0 -0 -0 -0 0 -0 0 0 0 -0 0 0 -0 0 0 0 0 0 0 0 0 0 0 0 0 0 0 0 0 0 0 0 0 0 0 0 0 0 0 0 0 0
0 0 -0 -0 -0 0 -0 -0 0 0 -0 -0 0 0 0 -0 -0 0 0 0 0 0 0 0 0 0 0 0 0 0 0 0 0 0 0 0 0 0 0 0 0 0 0 0 0 0 0
Wind_Speed_500mb
39 42 45 44 41 40 37 34 33 33 34 33 30 26 25 24 22 24 20 20 23 20 16 13 11 11 11 11 18 4 6 13 27 31 33 37 29 21 11 9 18 11 19 12 15 23 28
41 44 47 45 44 41 36 34 35 37 38 38 34 29 25 23 21 20 21 21 18 17 11 10 10 9 12 6 1 2 9 11 26 30 35 42 24 14 18 19 9 28 29 24 24 19 24
44 43 45 46 44 40 34 34 37 40 42 40 35 28 24 22 20 18 17 16 16 10 8 10 10 11 19 21 10 2 13 11 19 29 40 42 30 18 9 16 9 42 12 8 19 13 9
47 47 44 45 45 42 35 35 40 44 44 41 34 27 22 18 17 15 13 12 10 6 4 8 10 10 16 14 20 12 2 13 24 27 39 31 20 31 34 15 9 11 8 10 5 10 24
44 45 46 45 46 43 38 35 41 46 46 43 36 28 21 16 13 10 8 9 6 1 4 6 4 6 14 18 27 16 17 14 24 30 38 22 21 24 7 6 9 1 11 11 10 29 7
46 46 45 45 44 43 38 33 37 43 42 40 39 30 21 14 11 8 5 11 9 3 6 7 9 11 13 15 23 26 22 19 24 22 19 20 11 5 8 8 10 7 7 6 17 32 22
55 47 42 44 42 42 38 33 33 38 39 36 36 31 20 11 9 5 7 10 7 6 16 17 9 16 20 9 17 30 35 27 21 14 7 6 9 10 19 11 11 5 16 6 13 18 17
57 50 45 40 40 41 39 35 33 34 35 32 31 30 18 8 6 5 13 15 11 13 18 33 35 47 41 13 18 26 32 32 24 11 5 12 11 20 13 14 14 9 13 7 23 17 5
53 53 47 39 41 39 39 36 32 34 34 31 32 29 20 12 8 11 16 11 13 30 9 24 24 26 26 25 28 28 29 13 9 5 9 12 22 16 10 18 17 18 12 11 14 20 25
53 52 49 42 40 40 38 37 34 33 33 30 24 24 18 13 14 13 14 7 17 30 9 12 6 9 14 42 11 33 33 22 4 17 11 12 34 20 15 21 13 17 12 23 36 12 9
54 52 49 45 40 41 39 38 34 31 31 27 22 22 20 18 20 27 18 27 31 7 6 9 9 3 23 23 8 27 41 33 15 9 12 18 7 13 17 24 17 21 13 28 30 9 14
55 52 50 46 43 40 39 37 34 30 30 27 24 20 21 22 20 9 28 30 16 11 6 7 20 13 5 16 16 12 46 28 18 6 5 17 41 12 21 25 24 22 28 20 9 8 2
59 54 50 46 42 40 38 37 35 31 32 28 26 27 23 27 17 13 30 29 9 5 9 7 9 6 15 12 6 11 13 11 9 4 9 14 13 11 14 15 6 14 13 4 7 7 11
59 56 50 45 42 40 38 37 35 31 34 35 26 30 28 19 15 24 30 8 7 4 8 7 3 12 13 9 5 14 16 8 8 9 2 6 16 6 7 15 16 9 15 11 9 9 10
58 59 50 44 39 38 39 38 33 27 35 37 35 30 27 20 14 20 6 9 11 8 8 10 15 15 10 8 10 12 12 5 7 7 13 6 10 11 6 10 16 10 4 6 11 4 7
60 59 50 45 36 36 38 39 35 33 37 39 34 21 23 24 17 14 7 7 7 10 8 7 8 10 10 17 11 10 10 4 16 10 9 1 7 5 14 5 7 15 8 9 7 9 7
59 56 53 43 34 35 40 41 37 34 38 33 21 13 25 23 24 6 4 11 9 26 17 1 7 12 11 7 8 8 5 8 10 15 15 4 4 15 1 3 9 6 6 9 5 9 9
56 53 50 41 37 37 40 40 37 43 42 33 8 4 18 13 8 4 6 8 4 12 3 8 9 6 10 4 6 6 6 6 25 21 9 4 6 2 9 17 7 9 9 9 8 8 5
54 50 50 38 38 38 39 37 34 43 45 42 21 12 3 13 5 6 7 3 4 12 11 9 4 4 8 9 6 9 7 20 25 9 2 6 7 7 19 16 17 10 5 9 7 6 1
50 49 47 38 35 36 36 34 32 42 41 36 9 7 10 7 4 7 7 6 6 12 10 11 5 3 8 2 4 3 6 13 22 2 2 9 6 9 9 12 10 16 12 7 9 7 5
45 45 44 33 32 33 34 30 28 36 34 18 6 5 11 5 10 8 10 7 9 8 16 12 13 13 7 5 5 5 9 14 2 6 10 9 7 8 7 17 20 14 10 23 9 13 10
41 41 39 29 29 31 31 26 25 31 24 21 15 12 19 14 19 10 11 11 16 6 11 9 17 21 20 10 6 7 5 8 3 12 6 6 5 5 4 26 23 11 17 20 22 21 21
40 38 37 26 27 26 27 23 23 27 26 13 25 14 10 15 16 10 5 9 9 10 23 32 18 15 18 12 5 6 5 16 3 8 8 7 6 7 6 10 16 10 12 7 9 13 40
38 35 34 24 23 24 24 21 19 25 29 27 33 14 12 8 6 4 18 26 14 8 6 10 28 12 9 20 16 5 4 12 7 15 12 7 6 5 1 16 10 6 11 7 16 26 13
37 32 28 21 18 19 18 17 11 17 21 23 29 17 11 4 11 16 21 9 11 9 7 13 9 7 13 9 8 9 11 8 10 3 11 11 8 5 8 8 8 7 12 13 5 10 13
38 28 24 18 15 13 13 13 8 7 9 11 24 22 7 5 15 18 16 33 6 6 8 7 9 11 9 8 7 4 5 8 2 7 13 14 13 9 2 2 6 3 10 33 5 7 17
36 26 20 14 11 8 7 9 8 5 7 13 27 28 9 10 46 39 16 10 31 9 5 5 7 13 8 5 5 3 5 8 6 7 3 6 6 7 2 3 3 7 26 9 11 11 41
33 26 18 12 9 6 5 6 6 5 7 10 19 24 19 13 40 32 35 36 28 21 6 14 7 13 10 9 5 3 4 2 7 4 8 6 6 1 4 4 5 24 14 9 5 20 39
28 22 17 12 8 3 2 2 3 3 10 14 12 8 12 15 32 27 29 26 19 26 12 11 5 4 6 6 7 5 7 8 3 2 6 3 10 9 9 8 12 38 33 24 31 48 51
Wind_Direction_500mb
7 6 5 4 1 359 356 354 355 353 349 343 335 327 322 317 313 312 308 308 309 300 287 266 251 266 273 253 244 109 37 176 186 180 190 192 208 218 207 199 210 197 171 194 123 145 119
5 4 5 3 1 360 1 2 2 358 352 343 334 330 323 319 311 309 310 310 309 299 277 244 225 234 244 270 155 182 315 212 202 189 191 195 206 223 273 247 177 248 148 140 131 127 140
7 2 1 2 1 1 1 2 1 359 356 349 340 332 326 320 311 310 311 315 310 292 263 223 218 217 243 222 130 318 340 233 196 199 192 195 209 254 328 325 323 136 97 47 106 155 117
4 1 358 360 359 358 357 356 358 358 357 357 353 348 340 327 315 316 323 324 317 287 237 218 221 231 249 169 226 227 182 194 188 191 192 203 231 268 262 286 79 146 88 111 98 232 171
360 358 357 355 357 356 353 351 353 354 356 359 358 355 352 337 329 334 344 357 28 69 176 198 178 265 262 177 206 196 208 193 166 179 202 240 285 265 298 55 19 329 160 136 145 237 213
358 355 355 353 354 353 350 347 349 351 353 357 360 357 354 351 352 346 50 30 57 77 194 183 228 306 239 213 196 184 191 158 158 167 244 262 246 88 36 85 215 191 92 184 168 191 193
360 354 351 352 350 349 348 345 344 350 349 351 357 356 357 11 2 340 311 325 335 265 232 231 239 246 301 232 188 187 202 196 191 181 188 234 78 203 238 206 229 323 324 136 115 157 167
358 356 351 348 348 346 346 343 340 347 348 345 352 355 355 358 360 327 317 293 342 334 299 294 278 260 278 248 208 206 194 190 196 193 200 13 231 228 233 253 256 253 218 137 104 44 141
353 356 353 345 346 344 344 340 339 342 346 344 344 355 359 352 346 310 304 308 358 322 309 300 267 259 257 197 194 188 196 191 134 156 196 164 240 225 235 267 276 261 178 206 141 107 47
348 349 351 348 341 343 341 340 337 338 342 344 341 347 349 323 312 293 322 352 323 314 46 280 196 265 219 172 179 187 199 199 211 196 200 220 255 243 229 249 214 257 209 178 150 152 161
343 344 346 346 340 339 339 339 334 334 338 338 333 327 325 315 292 293 350 335 334 231 27 185 199 123 171 163 123 196 196 203 228 199 113 239 256 224 238 233 210 244 152 145 136 94 120
343 342 342 342 339 335 337 334 331 330 333 329 322 315 315 315 298 323 324 334 331 54 255 290 180 170 101 228 236 205 190 203 224 236 262 249 274 197 224 250 222 125 99 62 53 97 230
347 347 341 340 337 336 336 335 331 326 325 323 319 302 292 284 251 302 317 332 47 124 320 8 6 162 189 213 217 136 180 203 148 86 294 317 275 247 221 257 358 156 122 69 32 33 234
346 348 344 344 342 340 340 337 331 326 323 317 317 308 287 258 234 277 313 48 82 274 287 273 305 301 194 171 252 168 141 203 244 128 277 248 322 224 224 185 199 162 153 158 147 184 243
349 349 349 350 346 345 343 339 333 327 327 317 320 310 285 209 234 273 280 52 205 234 231 328 336 48 353 13 88 72 356 290 188 154 183 220 262 310 236 244 148 264 93 160 140 32 122
353 351 351 350 352 349 345 340 338 339 337 329 330 313 253 188 228 272 58 258 233 228 304 59 72 39 19 3 44 61 8 334 345 40 207 75 291 286 300 124 19 136 171 54 3 148 217
353 353 353 358 355 350 348 346 342 343 346 342 338 324 166 192 208 204 186 234 241 271 240 203 70 43 27 88 65 16 245 317 7 329 26 29 90 295 346 97 152 20 73 72 111 135 168
352 351 352 353 353 352 351 349 345 346 354 353 346 349 147 206 121 219 188 202 327 13 273 74 101 85 77 44 80 333 33 137 296 325 344 340 141 358 260 287 325 147 140 113 121 272 105
351 349 351 352 353 352 351 350 350 351 354 353 331 279 181 212 164 254 268 258 95 34 16 46 93 148 224 134 122 221 192 197 253 287 193 331 3 26 349 358 4 9 360 140 138 103 94
348 348 349 350 351 351 348 351 358 352 347 342 342 349 341 157 35 163 131 203 90 33 39 45 53 102 88 83 50 226 1 184 208 302 111 86 75 114 151 218 240 294 338 339 108 102 127
344 345 349 350 350 350 349 354 3 357 352 5 344 303 347 313 351 43 65 82 116 59 3 24 357 19 155 83 55 43 16 0 237 222 141 117 136 125 252 312 334 252 337 327 159 161 132
343 342 347 344 348 350 350 352 10 15 15 35 14 5 339 332 343 49 54 20 97 59 70 358 70 47 68 100 180 189 180 80 286 319 22 15 218 117 4 320 331 342 356 22 91 85 70
342 338 344 340 346 348 350 352 12 27 37 40 19 345 339 340 339 79 306 76 53 87 35 84 104 68 26 340 293 223 259 114 235 94 6 72 96 82 227 334 323 17 340 17 44 139 140
337 334 339 343 347 350 351 352 5 24 29 36 27 11 15 309 46 94 94 90 81 75 120 84 73 96 346 344 321 306 301 234 131 79 83 96 80 85 166 49 312 258 328 9 115 155 126
332 328 329 332 343 349 351 355 2 14 24 33 32 32 22 2 345 49 73 73 69 75 89 90 68 59 336 5 43 28 354 30 2 40 82 119 105 66 137 176 270 26 2 334 88 29 133
334 317 317 325 335 340 350 354 0 15 23 26 30 34 52 57 342 34 68 46 67 330 13 87 57 7 24 73 64 122 186 198 325 30 15 75 80 110 72 148 184 314 293 340 101 36 153
326 313 301 309 312 323 343 354 19 31 40 58 40 38 58 68 53 60 46 50 38 46 78 62 348 14 341 58 62 132 242 163 110 119 333 28 20 123 114 228 317 304 341 6 101 209 159
309 306 287 289 284 315 340 6 14 45 78 91 63 46 65 77 73 64 60 43 37 39 96 330 52 11 33 45 101 271 91 300 77 333 129 130 122 234 74 81 324 332 8 92 234 33 179
291 292 268 259 244 243 285 355 333 69 94 106 60 42 93 84 87 73 53 43 42 41 36 42 119 183 106 62 29 65 22 24 352 263 356 1 169 171 149 206 279 73 105 103 119 117 125
Wind_Speed_850mb
39 42 45 44 41 40 37 34 33 33 34 33 30 26 25 24 22 24 20 20 23 20 16 13 11 11 11 11 18 4 6 13 27 31 33 37 29 21 11 9 18 11 19 12 15 23 28
41 44 47 45 44 41 36 34 35 37 38 38 34 29 25 23 21 20 21 21 18 17 11 10 10 9 12 6 1 2 9 11 26 30 35 42 24 14 18 19 9 28 29 24 24 19 24
44 43 45 46 44 40 34 34 37 40 42 40 35 28 24 22 20 18 17 16 16 10 8 10 10 11 19 21 10 2 13 11 19 29 40 42 30 18 9 16 9 42 12 8 19 13 9
47 47 44 45 45 42 35 35 40 44 44 41 34 27 22 18 17 15 13 12 10 6 4 8 10 10 16 14 20 12 2 13 24 27 39 31 20 31 34 15 9 11 8 10 5 10 24
44 45 46 45 46 43 38 35 41 46 46 43 36 28 21 16 13 10 8 9 6 1 4 6 4 6 14 18 27 16 17 14 24 30 38 22 21 24 7 6 9 1 11 11 10 29 7
46 46 45 45 44 43 38 33 37 43 42 40 39 30 21 14 11 8 5 11 9 3 6 7 9 11 13 15 23 26 22 19 24 22 19 20 11 5 8 8 10 7 7 6 17 32 22
55 47 42 44 42 42 38 33 33 38 39 36 36 31 20 11 9 5 7 10 7 6 16 17 9 16 20 9 17 30 35 27 21 14 7 6 9 10 19 11 11 5 16 6 13 18 17
57 50 45 40 40 41 39 35 33 34 35 32 31 30 18 8 6 5 13 15 11 13 18 33 35 47 41 13 18 26 32 32 24 11 5 12 11 20 13 14 14 9 13 7 23 17 5
53 53 47 39 41 39 39 36 32 34 34 31 32 29 20 12 8 11 16 11 13 30 9 24 24 26 26 25 28 28 29 13 9 5 9 12 22 16 10 18 17 18 12 11 14 20 25
53 52 49 42 40 40 38 37 34 33 33 30 24 24 18 13 14 13 14 7 17 30 9 12 6 9 14 42 11 33 33 22 4 17 11 12 34 20 15 21 13 17 12 23 36 12 9
54 52 49 45 40 41 39 38 34 31 31 27 22 22 20 18 20 27 18 27 31 7 6 9 9 3 23 23 8 27 41 33 15 9 12 18 7 13 17 24 17 21 13 28 30 9 14
55 52 50 46 43 40 39 37 34 30 30 27 24 20 21 22 20 9 28 30 16 11 6 7 20 13 5 16 16 12 46 28 18 6 5 17 41 12 21 25 24 22 28 20 9 8 2
59 54 50 46 42 40 38 37 35 31 32 28 26 27 23 27 17 13 30 29 9 5 9 7 9 6 15 12 6 11 13 11 9 4 9 14 13 11 14 15 6 14 13 4 7 7 11
59 56 50 45 42 40 38 37 35 31 34 35 26 30 28 19 15 24 30 8 7 4 8 7 3 12 13 9 5 14 16 8 8 9 2 6 16 6 7 15 16 9 15 11 9 9 10
58 59 50 44 39 38 39 38 33 27 35 37 35 30 27 20 14 20 6 9 11 8 8 10 15 15 10 8 10 12 12 5 7 7 13 6 10 11 6 10 16 10 4 6 11 4 7
60 59 50 45 36 36 38 39 35 33 37 39 34 21 23 24 17 14 7 7 7 10 8 7 8 10 10 17 11 10 10 4 16 10 9 1 7 5 14 5 7 15 8 9 7 9 7
59 56 53 43 34 35 40 41 37 34 38 33 21 13 25 23 24 6 4 11 9 26 17 1 7 12 11 7 8 8 5 8 10 15 15 4 4 15 1 3 9 6 6 9 5 9 9
56 53 50 41 37 37 40 40 37 43 42 33 8 4 18 13 8 4 6 8 4 12 3 8 9 6 10 4 6 6 6 6 25 21 9 4 6 2 9 17 7 9 9 9 8 8 5
54 50 50 38 38 38 39 37 34 43 45 42 21 12 3 13 5 6 7 3 4 12 11 9 4 4 8 9 6 9 7 20 25 9 2 6 7 7 19 16 17 10 5 9 7 6 1
50 49 47 38 35 36 36 34 32 42 41 36 9 7 10 7 4 7 7 6 6 12 10 11 5 3 8 2 4 3 6 13 22 2 2 9 6 9 9 12 10 16 12 7 9 7 5
45 45 44 33 32 33 34 30 28 36 34 18 6 5 11 5 10 8 10 7 9 8 16 12 13 13 7 5 5 5 9 14 2 6 10 9 7 8 7 17 20 14 10 23 9 13 10
41 41 39 29 29 31 31 26 25 31 24 21 15 12 19 14 19 10 11 11 16 6 11 9 17 21 20 10 6 7 5 8 3 12 6 6 5 5 4 26 23 11 17 20 22 21 21
40 38 37 26 27 26 27 23 23 27 26 13 25 14 10 15 16 10 5 9 9 10 23 32 18 15 18 12 5 6 5 16 3 8 8 7 6 7 6 10 16 10 12 7 9 13 40
38 35 34 24 23 24 24 21 19 25 29 27 33 14 12 8 6 4 18 26 14 8 6 10 28 12 9 20 16 5 4 12 7 15 12 7 6 5 1 16 10 6 11 7 16 26 13
37 32 28 21 18 19 18 17 11 17 21 23 29 17 11 4 11 16 21 9 11 9 7 13 9 7 13 9 8 9 11 8 10 3 11 11 8 5 8 8 8 7 12 13 5 10 13
38 28 24 18 15 13 13 13 8 7 9 11 24 22 7 5 15 18 16 33 6 6 8 7 9 11 9 8 7 4 5 8 2 7 13 14 13 9 2 2 6 3 10 33 5 7 17
36 26 20 14 11 8 7 9 8 5 7 13 27 28 9 10 46 39 16 10 31 9 5 5 7 13 8 5 5 3 5 8 6 7 3 6 6 7 2 3 3 7 26 9 11 11 41
33 26 18 12 9 6 5 6 6 5 7 10 19 24 19 13 40 32 35 36 28 21 6 14 7 13 10 9 5 3 4 2 7 4 8 6 6 1 4 4 5 24 14 9 5 20 39
28 22 17 12 8 3 2 2 3 3 10 14 12 8 12 15 32 27 29 26 19 26 12 11 5 4 6 6 7 5 7 8 3 2 6 3 10 9 9 8 12 38 33 24 31 48 51
Wind_Direction_850mb
7 6 5 4 1 359 356 354 355 353 349 343 335 327 322 317 313 312 308 308 309 300 287 266 251 266 273 253 244 109 37 176 186 180 190 192 208 218 207 199 210 197 171 194 123 145 119
5 4 5 3 1 360 1 2 2 358 352 343 334 330 323 319 311 309 310 310 309 299 277 244 225 234 244 270 155 182 315 212 202 189 191 195 206 223 273 247 177 248 148 140 131 127 140
7 2 1 2 1 1 1 2 1 359 356 349 340 332 326 320 311 310 311 315 310 292 263 223 218 217 243 222 130 318 340 233 196 199 192 195 209 254 328 325 323 136 97 47 106 155 117
4 1 358 360 359 358 357 356 358 358 357 357 353 348 340 327 315 316 323 324 317 287 237 218 221 231 249 169 226 227 182 194 188 191 192 203 231 268 262 286 79 146 88 111 98 232 171
360 358 357 355 357 356 353 351 353 354 356 359 358 355 352 337 329 334 344 357 28 69 176 198 178 265 262 177 206 196 208 193 166 179 202 240 285 265 298 55 19 329 160 136 145 237 213
358 355 355 353 354 353 350 347 349 351 353 357 360 357 354 351 352 346 50 30 57 77 194 183 228 306 239 213 196 184 191 158 158 167 244 262 246 88 36 85 215 191 92 184 168 191 193
360 354 351 352 350 349 348 345 344 350 349 351 357 356 357 11 2 340 311 325 335 265 232 231 239 246 301 232 188 187 202 196 191 181 188 234 78 203 238 206 229 323 324 136 115 157 167
358 356 351 348 348 346 346 343 340 347 348 345 352 355 355 358 360 327 317 293 342 334 299 294 278 260 278 248 208 206 194 190 196 193 200 13 231 228 233 253 256 253 218 137 104 44 141
353 356 353 345 346 344 344 340 339 342 346 344 344 355 359 352 346 310 304 308 358 322 309 300 267 259 257 197 194 188 196 191 134 156 196 164 240 225 235 267 276 261 178 206 141 107 47
348 349 351 348 341 343 341 340 337 338 342 344 341 347 349 323 312 293 322 352 323 314 46 280 196 265 219 172 179 187 199 199 211 196 200 220 255 243 229 249 214 257 209 178 150 152 161
343 344 346 346 340 339 339 339 334 334 338 338 333 327 325 315 292 293 350 335 334 231 27 185 199 123 171 163 123 196 196 203 228 199 113 239 256 224 238 233 210 244 152 145 136 94 120
343 342 342 342 339 335 337 334 331 330 333 329 322 315 315 315 298 323 324 334 331 54 255 290 180 170 101 228 236 205 190 203 224 236 262 249 274 197 224 250 222 125 99 62 53 97 230
347 347 341 340 337 336 336 335 331 326 325 323 319 302 292 284 251 302 317 332 47 124 320 8 6 162 189 213 217 136 180 203 148 86 294 317 275 247 221 257 358 156 122 69 32 33 234
346 348 344 344 342 340 340 337 331 326 323 317 317 308 287 258 234 277 313 48 82 274 287 273 305 301 194 171 252 168 141 203 244 128 277 248 322 224 224 185 199 162 153 158 147 184 243
349 349 349 350 346 345 343 339 333 327 327 317 320 310 285 209 234 273 280 52 205 234 231 328 336 48 353 13 88 72 356 290 188 154 183 220 262 310 236 244 148 264 93 160 140 32 122
353 351 351 350 352 349 345 340 338 339 337 329 330 313 253 188 228 272 58 258 233 228 304 59 72 39 19 3 44 61 8 334 345 40 207 75 291 286 300 124 19 136 171 54 3 148 217
353 353 353 358 355 350 348 346 342 343 346 342 338 324 166 192 208 204 186 234 241 271 240 203 70 43 27 88 65 16 245 317 7 329 26 29 90 295 346 97 152 20 73 72 111 135 168
352 351 352 353 353 352 351 349 345 346 354 353 346 349 147 206 121 219 188 202 327 13 273 74 101 85 77 44 80 333 33 137 296 325 344 340 141 358 260 287 325 147 140 113 121 272 105
351 349 351 352 353 352 351 350 350 351 354 353 331 279 181 212 164 254 268 258 95 34 16 46 93 148 224 134 122 221 192 197 253 287 193 331 3 26 349 358 4 9 360 140 138 103 94
348 348 349 350 351 351 348 351 358 352 347 342 342 349 341 157 35 163 131 203 90 33 39 45 53 102 88 83 50 226 1 184 208 302 111 86 75 114 151 218 240 294 338 339 108 102 127
344 345 349 350 350 350 349 354 3 357 352 5 344 303 347 313 351 43 65 82 116 59 3 24 357 19 155 83 55 43 16 0 237 222 141 117 136 125 252 312 334 252 337 327 159 161 132
343 342 347 344 348 350 350 352 10 15 15 35 14 5 339 332 343 49 54 20 97 59 70 358 70 47 68 100 180 189 180 80 286 319 22 15 218 117 4 320 331 342 356 22 91 85 70
342 338 344 340 346 348 350 352 12 27 37 40 19 345 339 340 339 79 306 76 53 87 35 84 104 68 26 340 293 223 259 114 235 94 6 72 96 82 227 334 323 17 340 17 44 139 140
337 334 339 343 347 350 351 352 5 24 29 36 27 11 15 309 46 94 94 90 81 75 120 84 73 96 346 344 321 306 301 234 131 79 83 96 80 85 166 49 312 258 328 9 115 155 126
332 328 329 332 343 349 351 355 2 14 24 33 32 32 22 2 345 49 73 73 69 75 89 90 68 59 336 5 43 28 354 30 2 40 82 119 105 66 137 176 270 26 2 334 88 29 133
334 317 317 325 335 340 350 354 0 15 23 26 30 34 52 57 342 34 68 46 67 330 13 87 57 7 24 73 64 122 186 198 325 30 15 75 80 110 72 148 184 314 293 340 101 36 153
326 313 301 309 312 323 343 354 19 31 40 58 40 38 58 68 53 60 46 50 38 46 78 62 348 14 341 58 62 132 242 163 110 119 333 28 20 123 114 228 317 304 341 6 101 209 159
309 306 287 289 284 315 340 6 14 45 78 91 63 46 65 77 73 64 60 43 37 39 96 330 52 11 33 45 101 271 91 300 77 333 129 130 122 234 74 81 324 332 8 92 234 33 179
291 292 268 259 244 243 285 355 333 69 94 106 60 42 93 84 87 73 53 43 42 41 36 42 119 183 106 62 29 65 22 24 352 263 356 1 169 171 149 206 279 73 105 103 119 117 125